TimePST,TemperatureF,Dew PointF,Humidity,Sea Level PressureIn,VisibilityMPH,Wind Direction,Wind SpeedMPH,Gust SpeedMPH,PrecipitationIn,Events,Conditions,WindDirDegrees,DateUTC
12:58 AM,40.3,40.3,100,29.98,6.0,Calm,Calm,-,N/A,,Mostly Cloudy,0,2012-12-30 08:58:00
1:18 AM,39.2,39.2,100,29.97,3.0,WNW,1.2,-,N/A,,Overcast,300,2012-12-30 09:18:00
1:29 AM,39.2,39.2,100,29.97,3.0,Calm,Calm,-,N/A,,Overcast,0,2012-12-30 09:29:00
1:44 AM,41.0,41.0,100,29.97,5.0,Calm,Calm,-,N/A,,Overcast,0,2012-12-30 09:44:00
1:54 AM,41.0,41.0,100,29.97,5.0,Calm,Calm,-,N/A,,Overcast,0,2012-12-30 09:54:00
1:58 AM,41.0,41.0,100,29.99,5.0,Calm,Calm,-,N/A,,Overcast,0,2012-12-30 09:58:00
2:13 AM,41.0,41.0,100,29.98,7.0,Calm,Calm,-,N/A,,Overcast,0,2012-12-30 10:13:00
2:50 AM,41.0,41.0,100,29.97,5.0,North,1.2,-,N/A,,Overcast,10,2012-12-30 10:50:00
2:58 AM,41.9,41.9,100,29.98,5.0,NNW,3.5,-,N/A,,Overcast,340,2012-12-30 10:58:00
3:23 AM,42.8,42.8,100,29.97,5.0,Calm,Calm,-,N/A,,Overcast,0,2012-12-30 11:23:00
3:58 AM,42.4,42.4,100,29.97,4.0,East,2.3,-,N/A,,Mostly Cloudy,100,2012-12-30 11:58:00
4:03 AM,42.8,42.8,100,29.96,2.5,ESE,3.5,-,N/A,,Mostly Cloudy,110,2012-12-30 12:03:00
4:08 AM,42.8,42.8,100,29.96,1.5,NE,1.2,-,N/A,,Mostly Cloudy,50,2012-12-30 12:08:00
4:18 AM,42.8,42.8,100,29.95,1.0,Calm,Calm,-,N/A,,Mostly Cloudy,0,2012-12-30 12:18:00
4:28 AM,42.8,42.8,100,29.95,0.2,Calm,Calm,-,N/A,Fog,Fog,0,2012-12-30 12:28:00
4:33 AM,41.0,41.0,100,29.95,0.5,Calm,Calm,-,N/A,Fog,Fog,0,2012-12-30 12:33:00
4:43 AM,41.0,41.0,100,29.95,0.2,Calm,Calm,-,N/A,Fog,Fog,0,2012-12-30 12:43:00
4:58 AM,41.7,41.7,100,29.96,0.2,Calm,Calm,-,N/A,Fog,Fog,0,2012-12-30 12:58:00
5:28 AM,41.0,41.0,100,29.96,0.2,SSW,2.3,-,N/A,Fog,Fog,210,2012-12-30 13:28:00
5:33 AM,41.0,41.0,100,29.96,0.5,SSW,2.3,-,N/A,Fog,Fog,200,2012-12-30 13:33:00
5:38 AM,42.8,42.8,100,29.96,0.8,South,2.3,-,N/A,,Overcast,190,2012-12-30 13:38:00
5:43 AM,42.8,42.8,100,29.96,0.8,SE,2.3,-,N/A,,Mostly Cloudy,130,2012-12-30 13:43:00
5:58 AM,42.8,42.8,100,29.97,0.8,Calm,Calm,-,N/A,,Overcast,0,2012-12-30 13:58:00
6:03 AM,42.8,42.8,100,29.96,0.8,Calm,Calm,-,N/A,,Overcast,0,2012-12-30 14:03:00
6:18 AM,41.0,41.0,100,29.95,0.2,South,2.3,-,N/A,Fog,Fog,170,2012-12-30 14:18:00
6:33 AM,41.0,41.0,100,29.96,0.2,Calm,Calm,-,N/A,Fog,Fog,0,2012-12-30 14:33:00
6:58 AM,41.4,41.4,100,29.96,0.2,SE,2.3,-,N/A,Fog,Fog,130,2012-12-30 14:58:00
7:03 AM,41.0,41.0,100,29.96,0.8,South,2.3,-,N/A,,Mostly Cloudy,180,2012-12-30 15:03:00
7:08 AM,41.0,41.0,100,29.96,1.5,South,3.5,-,N/A,,Mostly Cloudy,170,2012-12-30 15:08:00
7:13 AM,41.0,41.0,100,29.96,3.0,South,2.3,-,N/A,,Mostly Cloudy,170,2012-12-30 15:13:00
7:18 AM,41.0,41.0,100,29.96,4.0,South,3.5,-,N/A,,Mostly Cloudy,180,2012-12-30 15:18:00
7:33 AM,41.0,41.0,100,29.96,7.0,SSE,3.5,-,N/A,,Mostly Cloudy,160,2012-12-30 15:33:00
7:58 AM,41.5,41.5,100,29.97,8.0,ESE,4.6,-,N/A,,Scattered Clouds,120,2012-12-30 15:58:00
8:13 AM,41.0,41.0,100,29.97,2.0,SE,4.6,-,N/A,,Mostly Cloudy,140,2012-12-30 16:13:00
8:23 AM,41.0,41.0,100,29.97,0.8,ESE,4.6,-,N/A,,Mostly Cloudy,110,2012-12-30 16:23:00
8:28 AM,41.0,41.0,100,29.98,0.2,NNE,1.2,-,N/A,Fog,Fog,30,2012-12-30 16:28:00
8:43 AM,41.0,41.0,100,29.98,0.2,SE,5.8,-,N/A,Fog,Fog,130,2012-12-30 16:43:00
8:58 AM,41.5,41.5,100,30.01,0.2,SSE,3.5,-,N/A,Fog,Fog,150,2012-12-30 16:58:00
9:03 AM,41.0,41.0,100,29.99,1.0,SSE,3.5,-,N/A,,Overcast,160,2012-12-30 17:03:00
9:13 AM,41.0,41.0,100,29.99,1.5,SSE,3.5,-,N/A,,Overcast,150,2012-12-30 17:13:00
9:18 AM,42.8,42.8,100,29.99,2.0,Variable,2.3,-,N/A,,Overcast,0,2012-12-30 17:18:00
9:23 AM,41.0,41.0,100,29.99,2.5,South,3.5,-,N/A,,Mostly Cloudy,170,2012-12-30 17:23:00
9:38 AM,42.8,42.8,100,30.00,3.0,SSE,5.8,-,N/A,,Mostly Cloudy,160,2012-12-30 17:38:00
9:58 AM,42.1,42.1,100,30.01,6.0,SE,4.6,-,N/A,,Overcast,130,2012-12-30 17:58:00
10:13 AM,42.8,42.8,100,29.99,8.0,ESE,3.5,-,N/A,,Overcast,120,2012-12-30 18:13:00
10:23 AM,44.6,44.6,100,29.99,10.0,SSE,4.6,-,N/A,,Mostly Cloudy,150,2012-12-30 18:23:00
10:33 AM,42.8,42.8,100,29.99,10.0,SE,4.6,-,N/A,,Mostly Cloudy,140,2012-12-30 18:33:00
10:53 AM,44.6,44.6,100,29.98,10.0,Variable,2.3,-,N/A,,Mostly Cloudy,0,2012-12-30 18:53:00
10:58 AM,44.2,44.2,100,29.99,10.0,ESE,4.6,-,N/A,,Mostly Cloudy,120,2012-12-30 18:58:00
11:58 AM,45.9,45.9,100,29.96,10.0,NNE,1.2,-,N/A,,Mostly Cloudy,30,2012-12-30 19:58:00
12:58 PM,49.1,45.1,86,29.91,10.0,North,4.6,-,N/A,,Mostly Cloudy,350,2012-12-30 20:58:00
1:58 PM,50.0,43.0,77,29.90,10.0,WNW,6.9,-,N/A,,Mostly Cloudy,300,2012-12-30 21:58:00
2:07 PM,50.0,42.8,76,29.89,4.0,NW,17.3,28.8,N/A,Rain-Thunderstorm,Thunderstorms and Rain,310,2012-12-30 22:07:00
2:16 PM,46.4,41.0,81,29.89,7.0,NNW,19.6,26.5,N/A,Rain-Thunderstorm,Light Thunderstorms and Rain,330,2012-12-30 22:16:00
2:21 PM,46.4,41.0,81,29.90,8.0,NNW,15.0,-,N/A,Rain,Rain,330,2012-12-30 22:21:00
2:24 PM,44.6,41.0,87,29.90,7.0,NNW,15.0,-,N/A,Rain,Light Rain,330,2012-12-30 22:24:00
2:46 PM,44.6,41.0,87,29.90,10.0,SW,4.6,-,N/A,Rain,Light Rain,230,2012-12-30 22:46:00
2:58 PM,44.8,41.0,87,29.90,10.0,SW,6.9,-,0.10,Rain,Light Rain,220,2012-12-30 22:58:00
3:07 PM,44.6,41.0,87,29.89,10.0,SSW,6.9,-,N/A,,Mostly Cloudy,210,2012-12-30 23:07:00
3:58 PM,44.8,41.5,88,29.90,10.0,SW,6.9,-,0.00,,Mostly Cloudy,220,2012-12-30 23:58:00
4:58 PM,43.0,40.5,91,29.92,10.0,Calm,Calm,-,N/A,,Mostly Cloudy,0,2012-12-31 00:58:00
5:58 PM,41.5,41.2,99,29.94,10.0,SE,5.8,-,N/A,,Mostly Cloudy,130,2012-12-31 01:58:00
6:58 PM,38.3,38.1,99,29.97,10.0,SE,4.6,-,N/A,,Scattered Clouds,140,2012-12-31 02:58:00
7:58 PM,36.9,36.9,100,30.00,10.0,Variable,2.3,-,N/A,,Clear,0,2012-12-31 03:58:00
8:58 PM,35.6,35.4,99,30.01,10.0,SW,3.5,-,N/A,,Clear,230,2012-12-31 04:58:00
9:58 PM,35.8,35.8,100,30.03,10.0,SW,2.3,-,N/A,,Clear,220,2012-12-31 05:58:00
10:58 PM,36.1,36.1,100,30.05,10.0,Calm,Calm,-,N/A,,Clear,0,2012-12-31 06:58:00
11:58 PM,32.5,32.5,100,30.07,8.0,Calm,Calm,-,N/A,,Clear,0,2012-12-31 07:58:00